When you browse on this site, cookies collect data to enhance your experience and personalize the content and advertising you see.
Visit our Privacy Policy to learn more. By continuing to use the site, you agree to this use of cookies and data.
  • In Österreich
  • Länderverzeichnis
  • Für 7 Tage
  • Wassertemperatur
  • Wetterkarte
  • News
  • Widgets
  • user-avatar
    Anmelden

    Stündliche Wetter Maleshev

    Heute, 18 August, Sonntag

    Zeit Temperatur Niederschläge Wind Luftdruck Luftfeuchtigkeit
    00:00 +14°C° 0 mm 1 m/S 749 mmHg 88%
    01:00 +13°C° 0 mm 1 m/S 749 mmHg 89%
    02:00 +13°C° 0 mm 1 m/S 749 mmHg 87%
    03:00 +13°C° 0 mm 1 m/S 749 mmHg 87%
    04:00 +13°C° 0 mm 2 m/S 749 mmHg 88%
    05:00 +13°C° 0 mm 2 m/S 749 mmHg 89%
    06:00 +15°C° 0 mm 2 m/S 749 mmHg 83%
    07:00 +16°C° 0 mm 1 m/S 749 mmHg 78%
    08:00 +19°C° 0 mm 1 m/S 749 mmHg 71%
    09:00 +20°C° 0 mm 2 m/S 749 mmHg 66%
    10:00 +23°C° 0 mm 2 m/S 749 mmHg 61%
    11:00 +24°C° 0 mm 2 m/S 749 mmHg 55%
    12:00 +25°C° 0 mm 2 m/S 749 mmHg 54%
    13:00 +25°C° 0 mm 2 m/S 749 mmHg 52%
    14:00 +26°C° 0 mm 3 m/S 749 mmHg 50%
    15:00 +26°C° 0 mm 2 m/S 749 mmHg 53%
    16:00 +26°C° 0 mm 2 m/S 749 mmHg 55%
    17:00 +26°C° 0 mm 2 m/S 749 mmHg 58%
    18:00 +24°C° 0 mm 1 m/S 749 mmHg 64%
    19:00 +22°C° 0 mm 1 m/S 750 mmHg 70%
    20:00 +20°C° 0 mm 1 m/S 750 mmHg 76%
    21:00 +19°C° 0 mm 1 m/S 750 mmHg 77%
    22:00 +18°C° 0 mm 2 m/S 750 mmHg 79%
    23:00 +17°C° 0 mm 2 m/S 750 mmHg 80%

    Morgen, 19 August, Montag

    Zeit Temperatur Niederschläge Wind Luftdruck Luftfeuchtigkeit
    00:00 +17°C° 0 mm 2 m/S 750 mmHg 81%
    01:00 +16°C° 0 mm 2 m/S 750 mmHg 81%
    02:00 +16°C° 0 mm 2 m/S 751 mmHg 82%
    03:00 +16°C° 0 mm 2 m/S 750 mmHg 83%
    04:00 +16°C° 0 mm 2 m/S 750 mmHg 83%
    05:00 +15°C° 0 mm 2 m/S 750 mmHg 83%
    06:00 +17°C° 0 mm 2 m/S 750 mmHg 81%
    07:00 +18°C° 0 mm 2 m/S 751 mmHg 79%
    08:00 +20°C° 0 mm 3 m/S 751 mmHg 77%
    09:00 +22°C° 0 mm 3 m/S 751 mmHg 71%
    10:00 +25°C° 0 mm 3 m/S 751 mmHg 65%
    11:00 +27°C° 0 mm 3 m/S 752 mmHg 59%
    12:00 +28°C° 0 mm 3 m/S 751 mmHg 57%
    13:00 +29°C° 0 mm 3 m/S 751 mmHg 55%
    14:00 +30°C° 0 mm 3 m/S 751 mmHg 52%
    15:00 +30°C° 0.1 mm 3 m/S 751 mmHg 55%
    16:00 +30°C° 0.1 mm 2 m/S 752 mmHg 58%
    17:00 +29°C° 0.1 mm 2 m/S 752 mmHg 61%
    18:00 +28°C° 0.1 mm 2 m/S 752 mmHg 68%
    19:00 +26°C° 0.1 mm 2 m/S 752 mmHg 74%
    20:00 +24°C° 0.1 mm 2 m/S 752 mmHg 80%
    21:00 +23°C° 0 mm 2 m/S 752 mmHg 82%
    22:00 +22°C° 0 mm 3 m/S 752 mmHg 83%
    23:00 +21°C° 0 mm 3 m/S 752 mmHg 85%

    übermorgen, 20 August, Dienstag

    Zeit Temperatur Niederschläge Wind Luftdruck Luftfeuchtigkeit
    00:00 +20°C° 0.2 mm 2 m/S 752 mmHg 86%
    01:00 +20°C° 0.2 mm 2 m/S 753 mmHg 86%
    02:00 +19°C° 0.2 mm 2 m/S 753 mmHg 87%
    03:00 +19°C° 0.1 mm 2 m/S 753 mmHg 88%
    04:00 +19°C° 0.1 mm 2 m/S 753 mmHg 89%
    05:00 +18°C° 0.1 mm 2 m/S 753 mmHg 90%
    06:00 +20°C° 0 mm 2 m/S 753 mmHg 86%
    07:00 +21°C° 0 mm 2 m/S 754 mmHg 82%
    08:00 +23°C° 0 mm 2 m/S 754 mmHg 78%
    09:00 +25°C° 0 mm 2 m/S 754 mmHg 73%
    10:00 +26°C° 0 mm 2 m/S 754 mmHg 67%
    11:00 +28°C° 0 mm 2 m/S 755 mmHg 62%
    12:00 +29°C° 0.1 mm 2 m/S 755 mmHg 61%
    13:00 +29°C° 0.1 mm 2 m/S 755 mmHg 60%
    14:00 +30°C° 0.1 mm 2 m/S 755 mmHg 58%
    15:00 +29°C° 0.7 mm 2 m/S 755 mmHg 64%
    16:00 +28°C° 0.7 mm 2 m/S 755 mmHg 70%
    17:00 +27°C° 0.7 mm 2 m/S 755 mmHg 75%
    18:00 +26°C° 0.1 mm 2 m/S 755 mmHg 81%
    19:00 +24°C° 0.1 mm 2 m/S 755 mmHg 87%
    20:00 +23°C° 0.1 mm 2 m/S 755 mmHg 92%
    21:00 +21°C° 0 mm 2 m/S 755 mmHg 93%
    22:00 +22°C° 0 mm 1 m/S 755 mmHg 93%
    23:00 +21°C° 0 mm 1 m/S 755 mmHg 94%

    21 August, Mittwoch

    Zeit Temperatur Niederschläge Wind Luftdruck Luftfeuchtigkeit
    00:00 +21°C° 0 mm 1 m/S 755 mmHg 94%
    01:00 +21°C° 0 mm 1 m/S 755 mmHg 95%
    02:00 +21°C° 0 mm 1 m/S 755 mmHg 95%
    03:00 +20°C° 0 mm 1 m/S 755 mmHg 94%
    04:00 +20°C° 0 mm 1 m/S 755 mmHg 93%
    05:00 +20°C° 0 mm 1 m/S 755 mmHg 93%
    06:00 +21°C° 0 mm 1 m/S 755 mmHg 88%
    07:00 +21°C° 0 mm 2 m/S 755 mmHg 84%
    08:00 +23°C° 0 mm 2 m/S 755 mmHg 79%
    09:00 +25°C° 0 mm 2 m/S 755 mmHg 70%
    10:00 +27°C° 0 mm 2 m/S 754 mmHg 61%
    11:00 +29°C° 0 mm 3 m/S 754 mmHg 53%
    12:00 +30°C° 0 mm 3 m/S 754 mmHg 50%
    13:00 +31°C° 0 mm 3 m/S 754 mmHg 48%
    14:00 +31°C° 0 mm 3 m/S 753 mmHg 45%
    15:00 +31°C° 0 mm 3 m/S 753 mmHg 48%
    16:00 +31°C° 0 mm 2 m/S 753 mmHg 51%
    17:00 +30°C° 0 mm 2 m/S 753 mmHg 55%
    18:00 +28°C° 0 mm 2 m/S 753 mmHg 59%
    19:00 +26°C° 0 mm 2 m/S 753 mmHg 64%
    20:00 +24°C° 0 mm 2 m/S 753 mmHg 68%
    21:00 +23°C° 0 mm 2 m/S 753 mmHg 72%
    22:00 +23°C° 0 mm 2 m/S 753 mmHg 76%
    23:00 +21°C° 0 mm 2 m/S 753 mmHg 79%

    22 August, Donnerstag

    Zeit Temperatur Niederschläge Wind Luftdruck Luftfeuchtigkeit
    00:00 +21°C° 0.1 mm 2 m/S 753 mmHg 84%
    01:00 +20°C° 0.1 mm 3 m/S 754 mmHg 89%
    02:00 +20°C° 0.1 mm 3 m/S 754 mmHg 94%
    03:00 +19°C° 0.1 mm 3 m/S 754 mmHg 93%
    04:00 +18°C° 0.1 mm 4 m/S 754 mmHg 92%
    05:00 +18°C° 0.1 mm 4 m/S 754 mmHg 91%
    06:00 +18°C° 0 mm 4 m/S 754 mmHg 89%
    07:00 +18°C° 0 mm 4 m/S 754 mmHg 87%
    08:00 +19°C° 0 mm 4 m/S 755 mmHg 85%
    09:00 +19°C° 0.1 mm 4 m/S 755 mmHg 84%
    10:00 +19°C° 0.1 mm 4 m/S 755 mmHg 83%
    11:00 +19°C° 0.1 mm 4 m/S 755 mmHg 82%
    12:00 +19°C° 0 mm 4 m/S 755 mmHg 80%
    13:00 +20°C° 0 mm 4 m/S 755 mmHg 79%
    14:00 +20°C° 0 mm 3 m/S 755 mmHg 77%
    15:00 +20°C° 0 mm 3 m/S 755 mmHg 77%
    16:00 +20°C° 0 mm 3 m/S 755 mmHg 76%
    17:00 +20°C° 0 mm 3 m/S 755 mmHg 76%
    18:00 +20°C° 0 mm 3 m/S 755 mmHg 77%
    19:00 +19°C° 0 mm 2 m/S 756 mmHg 78%
    20:00 +19°C° 0 mm 2 m/S 756 mmHg 79%
    21:00 +18°C° 0 mm 2 m/S 756 mmHg 81%
    22:00 +18°C° 0 mm 2 m/S 756 mmHg 82%
    23:00 +18°C° 0 mm 2 m/S 756 mmHg 84%

    23 August, Freitag

    Zeit Temperatur Niederschläge Wind Luftdruck Luftfeuchtigkeit
    00:00 +17°C° 0.1 mm 2 m/S 756 mmHg 86%
    01:00 +17°C° 0.1 mm 2 m/S 756 mmHg 88%
    02:00 +16°C° 0.1 mm 2 m/S 756 mmHg 91%
    03:00 +16°C° 0 mm 2 m/S 756 mmHg 91%
    04:00 +16°C° 0 mm 2 m/S 756 mmHg 90%
    05:00 +16°C° 0 mm 3 m/S 756 mmHg 90%
    06:00 +16°C° 0 mm 3 m/S 756 mmHg 87%
    07:00 +17°C° 0 mm 3 m/S 756 mmHg 83%
    08:00 +18°C° 0 mm 3 m/S 757 mmHg 80%
    09:00 +19°C° 0 mm 3 m/S 757 mmHg 73%
    10:00 +21°C° 0 mm 4 m/S 757 mmHg 66%
    11:00 +22°C° 0 mm 4 m/S 757 mmHg 59%
    12:00 +23°C° 0 mm 4 m/S 757 mmHg 57%
    13:00 +23°C° 0 mm 4 m/S 757 mmHg 55%
    14:00 +23°C° 0 mm 4 m/S 757 mmHg 53%
    15:00 +23°C° 0 mm 4 m/S 757 mmHg 55%
    16:00 +22°C° 0 mm 4 m/S 757 mmHg 56%
    17:00 +22°C° 0 mm 4 m/S 757 mmHg 58%
    18:00 +20°C° 0 mm 3 m/S 757 mmHg 65%
    19:00 +18°C° 0 mm 3 m/S 757 mmHg 72%
    20:00 +16°C° 0 mm 2 m/S 757 mmHg 80%
    21:00 +15°C° 0 mm 2 m/S 758 mmHg 83%
    22:00 +15°C° 0 mm 2 m/S 758 mmHg 86%
    23:00 +14°C° 0 mm 2 m/S 758 mmHg 90%
    Mehr zeigen